Georgetown, DE

2:33 PM EDT on August 18, 2017 (GMT -0400)
Sussex County

Weather History for KGED - October, 2012

Change the Weather History Date:

Friday, October 19, 2012

  Actual Average Record
Temperature  
Mean Temperature 71 °F 57 °F  
Max Temperature 78 °F 67 °F 86 °F (2016)
Min Temperature 63 °F 46 °F 25 °F (1976)
Degree Days  
Heating Degree Days 0 9  
Month to date heating degree days 114 119  
Since 1 July heating degree days 142 157  
Cooling Degree Days 6 0  
Month to date cooling degree days 56 18  
Year to date cooling degree days 1612 1189  
Growing Degree Days 22 (Base 50)    
Moisture  
Dew Point 65 °F    
Average Humidity 79    
Maximum Humidity 93    
Minimum Humidity 64    
Precipitation  
Precipitation 0.26 in 0.13 in 3.00 in (1966)
Month to date precipitation 1.29 2.30  
Year to date precipitation 24.66 35.70  
Sea Level Pressure  
Sea Level Pressure 29.75 in    
Wind  
Wind Speed 9 mph (South)    
Max Wind Speed 17 mph    
Max Gust Speed 21 mph    
Visibility 8 miles    
Events Rain    
T = Trace of Precipitation, MM = Missing Value Source: NWS Daily Summary

Daily Weather History Graph

Daily Weather History Graph

Search for Another Location

Airport or City:

Trip Planner

Search our weather history database for the weather conditions in past years. The results will help you decide how hot, cold, wet, or windy it might be!

Date:

Astronomy

Oct. 19, 2012 Rise Set
Actual Time 7:15 AM EDT 6:16 PM EDT
Civil Twilight 6:48 AM EDT 6:43 PM EDT
Nautical Twilight 6:17 AM EDT 7:14 PM EDT
Astronomical Twilight 5:46 AM EDT 7:45 PM EDT
Moon 11:53 AM EDT (10/19) 9:54 PM EDT (10/19)
Length of Visible Light 11h 55m
Length of Day
11h 01m
Waxing Crescent, 23% of the Moon is Illuminated
Oct 19
Waxing Crescent
Oct 21
First Quarter
Oct 29
Full
Nov 6
Last Quarter
Nov 13
New

Hourly Weather History & Observations

Time (EDT) Temp. Dew Point Humidity Pressure Visibility Wind Dir Wind Speed Gust Speed Precip Events Conditions
12:54 AM 66.9 °F 61.0 °F 81% 29.86 in 10.0 mi SE 6.9 mph - N/A   Overcast
1:54 AM 69.1 °F 64.9 °F 87% 29.83 in 10.0 mi SE 8.1 mph - N/A   Overcast
2:42 AM 69.8 °F 64.4 °F 83% 29.81 in 10.0 mi SSE 9.2 mph 19.6 mph N/A   Overcast
2:54 AM 69.1 °F 64.9 °F 87% 29.80 in 10.0 mi SSE 9.2 mph - 0.00 in Rain Light Rain
3:54 AM 69.1 °F 64.9 °F 87% 29.78 in 10.0 mi SSE 11.5 mph - 0.00 in   Overcast
4:54 AM 68.0 °F 64.9 °F 90% 29.78 in 10.0 mi SSE 5.8 mph - N/A   Overcast
5:54 AM 69.1 °F 66.0 °F 90% 29.78 in 10.0 mi SSE 8.1 mph - N/A   Overcast
6:54 AM 69.1 °F 66.0 °F 90% 29.77 in 10.0 mi SSE 8.1 mph - 0.00 in   Overcast
7:54 AM 68.0 °F 64.9 °F 90% 29.78 in 2.0 mi SSE 13.8 mph - 0.04 in Rain Rain
7:57 AM 68.0 °F 64.4 °F 88% 29.79 in 1.5 mi SSE 12.7 mph - 0.03 in Rain Heavy Rain
8:01 AM 68.0 °F 64.4 °F 88% 29.79 in 1.0 mi South 11.5 mph - 0.08 in Rain Heavy Rain
8:14 AM 66.2 °F 64.4 °F 94% 29.79 in 1.5 mi South 11.5 mph - 0.15 in Rain Light Rain
8:18 AM 66.2 °F 64.4 °F 94% 29.79 in 3.0 mi South 8.1 mph - 0.16 in Rain Rain
8:25 AM 66.2 °F 64.4 °F 94% 29.79 in 5.0 mi South 8.1 mph - 0.16 in Rain Light Rain
8:54 AM 66.9 °F 64.0 °F 90% 29.80 in 4.0 mi South 8.1 mph - 0.19 in Rain Light Rain
9:06 AM 66.2 °F 64.4 °F 94% 29.80 in 4.0 mi South 12.7 mph - 0.01 in Rain Rain
9:54 AM 68.0 °F 64.9 °F 90% 29.79 in 10.0 mi South 8.1 mph - 0.02 in   Overcast
10:54 AM 70.0 °F 66.0 °F 87% 29.78 in 10.0 mi South 9.2 mph - N/A   Overcast
11:54 AM 72.0 °F 66.0 °F 81% 29.75 in 10.0 mi South 13.8 mph 20.7 mph N/A   Overcast
12:04 PM 73.4 °F 66.2 °F 78% 29.75 in 10.0 mi South 9.2 mph - N/A   Overcast
12:54 PM 73.9 °F 66.0 °F 76% 29.73 in 10.0 mi South 12.7 mph - N/A   Overcast
1:54 PM 75.9 °F 66.0 °F 71% 29.71 in 10.0 mi South 11.5 mph - N/A   Mostly Cloudy
2:07 PM 75.2 °F 66.2 °F 73% 29.71 in 10.0 mi SSW 15.0 mph - N/A   Mostly Cloudy
2:54 PM 77.0 °F 64.9 °F 66% 29.70 in 10.0 mi South 11.5 mph - N/A   Scattered Clouds
3:54 PM 77.0 °F 64.0 °F 64% 29.68 in 10.0 mi South 9.2 mph 19.6 mph N/A   Scattered Clouds
4:54 PM 75.9 °F 62.1 °F 62% 29.68 in 10.0 mi SSW 10.4 mph - N/A   Scattered Clouds
5:54 PM 73.0 °F 64.0 °F 73% 29.67 in 10.0 mi South 10.4 mph - N/A   Clear
6:54 PM 69.1 °F 64.0 °F 84% 29.68 in 10.0 mi SSE 8.1 mph - N/A   Clear
7:54 PM 69.1 °F 64.9 °F 87% 29.68 in 9.0 mi South 11.5 mph 17.3 mph N/A   Mostly Cloudy
8:54 PM 68.0 °F 64.9 °F 90% 29.68 in 9.0 mi South 6.9 mph - N/A   Clear
9:54 PM 66.9 °F 64.0 °F 90% 29.69 in 8.0 mi South 6.9 mph - N/A   Clear
10:54 PM 66.0 °F 63.0 °F 90% 29.69 in 8.0 mi South 6.9 mph - N/A   Clear
11:54 PM 66.0 °F 62.1 °F 87% 29.71 in 10.0 mi SSW 6.9 mph - 0.01 in   Clear